OBJECT AU, 61777

Orbit data source: Space-Track

You're viewing an Uncataloged Satellite

Recently launched and/or uncataloged satellites may have evolving metadata. Metadata may include but not limited to: Owner, Maufacturer, Bus, Motor, and Mission.

OBJECT AU, 61777 is a satellite in SSO that was launched on Mon, 04 Nov 2024 UTC via a SOYUZ-2-1B launch vehicle from the Vostochny Cosmodrome (VOSTO). Unknown objects in Earth's orbit typically refer to objects detected orbiting the Earth but have not yet been identified or cataloged. These objects could be anything from previously untracked satellites, spent rocket stages, debris from satellite collisions, or even natural meteoroids temporarily captured by Earth's gravity.

Loading next visibility...
Identifier
61777, 2024-199AU
Orbit
SSO
Country
Flag of TBDTBD
Related business
None
Manufacturer
Unknown
Mission
Operational Commercial Communications
Bus & Motor
Unknown
Mass
Unknown
Launch date (UTC)
2024-11-04 (2 years ago)
Launch vehicle
SOYUZ-2-1B
Launch site
Vostochny Cosmodrome (VOSTO)
Object type
Unknown
Shape & HBR
Box, 0.1 m
Radar Cross Section
0.035 m², Small (<0.1 m²)

Expand to show TLE details & history
Last TLE update: 11 hours ago

TLE from 11 hours ago
0 OBJECT AU
1 61777U 24199AU  26145.57870019  .00016959  00000-0  36388-3 0  9999
2 61777  97.3025  18.0024 0014699   9.7152 350.4378 15.44673509130697
Epoch: 2026-05-25T13:53Z
TLE epoch observation values (Epoch: 2026-05-25T13:53:19.696Z)
Latitude
-0.00003°
Longitude
-73.49414°
Altitude
425.591 km
Speed
7.662 km/s
True Right ascension
01h 12m 00s
True Declination
0° 00' 00"
Sunlit
Object was in daylight at epoch
Visualization orbit readout
Latitude
Unknown
Longitude
Unknown
Altitude
Unknown
Speed
Unknown
Apparent Right ascension
Unknown
Apparent Declination
Unknown
Sunlit
N/A
Visualization observer readout
Local Sidereal Time
10:01:34
Azimuth
Unknown
Elevation
Unknown
Doppler factor
Unknown
Orbital elements
Apogee altitude
439.272 km
Perigee altitude
419.26 km
Semi-major axis
6,807.403 km
Eccentricity
0.00147
Inclination
97.3025°
RAAN
18.0024°
Arg. of periapsis
9.7152°
True anomaly
350.40977°
Mean anomaly
350.4378°
Eccentric anomaly
350.42379°
Mean motion
3.8643 °/min
Orbital period
93.16 mins
BSTAR
0.00036388
Loading maneuver chart data...
Computing Atmospheric mass density...
Loading historical data...
Loading historical data...
Loading historical data...
Loading historical data...
Loading historical data...
Loading historical data...
Loading historical data...

Documentation

Showing up to 5 results
|